Location: Unspecified
(0.0000°N, 0.0000°E)
Time: 11:46:08
(UTC-05:00)

Daily predictions for brighter satellites

Satellite Brightness Start Highest point End
(mag) Time Altitude Azimuth Time Altitude Azimuth Time Altitude Azimuth
ATLAS 2A CENTAUR R/B 3.8 13:17:56 10° SW 13:23:44 55° SE 13:46:26 10° ENE
Cosmos 1943 4.2 13:20:28 10° SSW 13:25:59 54° WNW 13:31:27 10° N
YAOGAN 1 3.3 13:23:05 10° S 13:27:20 57° WSW 13:31:34 10° NNW
Fermi 4.2 13:23:38 10° SW 13:27:28 40° SSE 13:31:17 10° E
ARIANE 5 R/B 2.6 13:26:13 10° W 13:29:10 83° S 13:43:00 10° E
Milstar 3 Cent rocket 4.3 13:22:52 10° SSW 13:29:17 29° SE 13:40:41 10° E
ATLAS 3B R/B 4.0 13:25:29 10° NNE 13:29:27 17° ENE 13:33:23 10° ESE
Cosmos 1975 Rocket 4.0 13:27:04 10° SSE 13:30:54 28° E 13:34:43 10° NE
Cosmos 1378 Rocket 3.6 13:27:26 10° S 13:31:50 63° E 13:36:13 10° NNE
Cosmos 2278 Rocket 3.3 13:27:05 10° NNW 13:32:28 47° WSW 13:37:51 10° S
Sylda 4400 3.7 13:30:17 10° SW 13:32:29 29° SSE 13:35:29 12° ESE
NOSS 2-2 (D) 3.5 13:28:50 10° SSW 13:33:25 58° ESE 13:37:21 10° NE
Cosmos 1340 2.6 13:31:37 10° S 13:35:21 60° E 13:39:05 10° NNE
Cosmos 1937 Rocket 3.5 13:34:16 10° N 13:39:19 64° ENE 13:44:24 10° SSE
FREGAT/IRIS 4.3 13:38:48 14° ESE 13:40:03 18° E 13:42:12 10° NE
Ariane 42L R/B 1.6 13:38:49 10° W 13:41:00 55° S 13:43:05 16° ESE
ALOS 3.3 13:38:58 10° SE 13:42:41 25° ENE 13:46:29 10° NNE
Cosmos 2298 Rocket 4.0 13:38:05 10° NNW 13:43:22 88° ENE 13:48:39 10° SSE
Cosmos 1553 Rocket 4.2 13:37:50 10° S 13:44:03 74° W 13:50:09 10° N
GPS 2-15 Rocket1 4.2 13:43:42 10° SW 13:47:49 27° SSE 13:50:17 18° ESE
NOSS 2-2 (C) 3.7 13:47:31 10° SSW 13:52:09 75° WNW 13:56:09 10° NNE
Okean 3 4.2 13:49:26 10° SSW 13:53:31 55° W 13:57:36 10° N
Cosmos 1818 4.2 13:49:40 10° SSW 13:54:59 61° WNW 14:00:18 10° N
Hubble Space Telescope 0.6 13:54:36 10° SW 13:58:44 75° SSE 14:01:51 17° ENE
Cosmos 883 Rocket 4.4 13:53:05 10° S 13:59:06 62° E 14:05:07 10° NNE
Tiangong 1 0.9 13:56:52 10° NW 13:59:40 56° NE 14:00:25 39° ESE
ISS -1.7 13:58:00 10° WSW 14:00:57 31° NW 14:03:54 10° N
Maqsat-B 3.9 13:57:49 10° WNW 14:01:35 53° NNE 14:09:13 16° E
Cosmos 1602 3.8 13:58:07 10° N 14:02:03 84° W 14:06:00 10° S
ARIANE 44P R/B 3.3 14:04:37 10° WSW 14:07:19 38° SSE 14:09:35 26° ESE
Cosmos 773 Rocket 3.9 14:02:39 10° S 14:07:51 72° ESE 14:12:59 10° NNE
Cosmos 2369 Rocket 4.2 14:06:17 10° NE 14:07:15 11° ENE 14:07:15 11° ENE
HJ-1C 4.3 14:11:49 32° ENE 14:11:49 32° ENE 14:14:30 10° NNE
Resurs 01 Rocket 3.1 14:15:02 21° ENE 14:15:02 21° ENE 14:17:36 10° NNE
Cosmos 1633 4.5 14:11:01 10° NNW 14:14:13 30° W 14:17:26 10° SSW
Meteor 1-18 Rocket 4.2 14:08:33 10° S 14:14:25 80° E 14:20:19 10° N
Palapa 6 Rocket 4.4 14:11:34 10° WSW 14:14:53 25° SSW 14:16:16 21° S
COSMOS 2406 3.3 14:09:34 10° S 14:15:11 53° ESE 14:20:45 10° NNE
Okean 1 3.2 14:19:10 42° SSE 14:20:15 60° E 14:24:09 10° NNE
Milstar 3 3.4 14:08:43 10° WNW 14:20:28 72° SSW 14:24:39 29° SE
ARIANE 5 R/B 4.3 14:18:20 10° W 14:25:52 84° S 14:27:36 41° E
Cosmos 1680 Rocket 3.6 14:29:56 48° E 14:29:56 48° E 14:34:49 10° NNE
Centaur D-1A AC-31 4.1 14:24:41 10° SSW 14:31:02 35° SE 15:16:03 10° ENE
Centaur D-1A AC-31 4.1 14:24:41 10° SSW 14:31:03 35° SE 15:16:04 10° ENE
Centaur D-1A AC-31 4.1 14:24:41 10° SSW 14:31:03 35° SE 15:16:03 10° ENE
ATLAS CENTAUR Rocket 3.2 14:05:13 10° WNW 14:32:26 68° NNE 14:34:56 39° E
Intelsat 5-1 Rocket 4.3 14:35:13 10° NNW 14:37:57 13° N 14:39:19 12° NNE
Cosmos 44 Rocket 4.1 14:38:04 10° N 14:41:18 35° NNE 14:41:18 35° NNE
Cosmos 1536 3.9 14:41:26 10° NNW 14:45:12 42° W 14:46:19 34° SW
BLOCK DM-SL R/B 3.8 14:35:33 10° W 14:48:37 62° N 14:50:02 45° NE
Cosmos 1125 Rocket 3.4 14:48:18 10° NNW 14:53:22 85° N 14:53:22 85° N
USA 238 DEB 3.7 14:47:23 10° NNW 14:54:29 73° ENE 14:55:32 63° ESE
USA 238 3.6 14:47:30 10° NNW 14:54:35 72° ENE 14:55:34 64° ESE
ARIANE 5 R/B 4.1 14:53:02 10° W 14:53:45 16° W 14:53:45 16° W
Helios 1B rocket 3.3 14:52:28 10° N 14:55:58 49° NW 14:55:58 49° NW
Iridium 4 Rocket 3.8 15:01:53 10° N 15:06:51 72° NNW 15:06:51 72° NNW
Ariane H10 4.3 15:04:37 10° WNW 15:08:21 63° N 15:09:23 56° NE
Cosmos 909 Rocket 4.5 15:00:07 10° NNW 15:08:58 81° WSW 15:10:25 62° S
ATLAS 3B R/B 3.4 15:13:48 10° NW 15:19:49 43° WSW 15:20:44 40° SW
Ariane H10 4.4 14:44:41 10° W 15:30:57 63° S 15:31:46 61° S
Centaur AC-42 4.1 15:30:53 10° NW 15:34:47 22° NNW 15:34:47 22° NNW
Hubble Space Telescope 4.1 15:37:09 10° WNW 15:37:18 11° WNW 15:37:18 11° WNW
Cosmos 2369 Rocket 4.1 15:46:40 10° NNW 15:49:06 25° NW 15:49:06 25° NW
Milstar 3 Cent rocket 4.5 15:58:27 10° WSW 16:09:31 83° NNW 16:34:56 10° ENE
Maqsat-H 4.1 16:09:49 10° WNW 16:53:45 21° E 22:06:48 10° E
Ariane H10 4.2 15:20:23 10° W 21:50:59 66° ENE 21:55:13 10° E
ATLAS 5 CENTAUR R/B 4.4 22:15:13 14° NE 22:15:13 14° NE 22:15:52 10° NNE
Cosmos 2263 Rocket 2.8 22:35:58 53° ENE 22:35:58 53° ENE 22:40:40 10° NNE
SWIFT 4.5 22:41:48 24° E 22:41:48 24° E 22:43:38 10° ENE
Intelsat 5-3 Rocket 3.8 22:46:53 61° S 22:46:53 61° S 22:50:57 10° SE
Centaur D AC-29 3.5 22:47:59 13° N 22:47:59 13° N 22:48:31 10° NNE
Cosmos 2208 Rocket 4.5 22:46:49 10° N 22:50:52 54° N 22:50:52 54° N
Okean O Rocket 4.1 22:56:02 10° NNW 22:56:23 12° NNW 22:56:23 12° NNW
ARIANE 5 DEB (SYLDA) 2.9 23:01:47 80° S 23:01:47 80° S 23:13:31 10° E
GP-B 3.8 22:58:50 10° N 23:01:54 45° N 23:01:54 45° N
Sakura Rocket 4.3 23:03:54 47° SSW 23:05:28 58° SSE 23:13:44 10° ENE
Atlas Centaur 2 3.1 23:03:59 49° W 23:06:29 71° NNW 23:14:49 10° NE
Meteor 1-31 Rocket 3.2 23:04:44 10° NNE 23:08:19 61° ENE 23:08:19 61° ENE
Cosmos 1869 Rocket 3.5 23:14:26 64° S 23:15:06 86° E 23:19:35 10° N
ERS-2 3.8 23:16:43 10° NE 23:20:03 32° ESE 23:22:44 14° SSE
ADEOS II 3.8 23:16:56 10° NNW 23:18:42 17° NW 23:18:42 17° NW
Cosmos 1315 Rocket 3.8 23:22:26 34° NW 23:22:26 34° NW 23:25:04 10° N
ARIANE 5 DEB (SYLDA) 4.1 23:25:20 40° E 23:25:20 40° E 23:26:57 10° E
Ariane 42L Rocket 3.9 23:23:24 39° SW 23:25:31 62° SSE 23:49:39 10° E
Centaur AC-146 3.9 23:26:04 32° SW 23:26:27 32° SW 23:30:02 10° SSE
Okean-O 2.5 23:22:28 10° NNE 23:26:54 90° ESE 23:29:01 31° SSW
CZ-4B R/B 3.6 23:23:32 10° N 23:27:18 66° WNW 23:27:31 64° WSW
ATLAS 2AS CENTAUR R/B 3.0 23:21:54 10° NW 23:28:23 38° WSW 23:34:21 10° S
Meteor 2-3 Rocket 4.1 23:29:10 37° W 23:29:31 38° W 23:34:40 10° NNW
Ariane V96 H10-3 4.1 23:33:24 16° N 23:33:35 16° N 23:35:09 10° NE
Meteor 2-10 Rocket 3.3 23:32:34 10° N 23:37:36 81° W 23:42:50 10° S
Cosmos 332 Rocket 4.3 23:34:21 10° N 23:39:07 61° ENE 23:43:56 10° SSE
Tiangong 2 2.1 23:42:05 10° NNW 23:45:05 46° NE 23:48:06 10° ESE
Cosmos 1825 2.1 23:42:46 12° S 23:46:18 85° E 23:50:03 10° N
Feng Yun 1-1 Rocket 4.4 23:42:29 10° N 23:47:49 51° WNW 23:52:43 13° SSW
Nadezhda 4 Rocket 4.0 23:41:52 10° SSW 23:47:51 55° W 23:53:53 10° N
